Location: Saint-Gilles les Bains
(21.0539°S, 55.2287°E)
Time: 07:52:43
(UTC+04:00)

Hubble Space Telescope - Visible Passes

Search period start: 26 February 2018 00:00
Search period end: 08 March 2018 00:00
Orbit: 537 x 541 km, 28.5° (Epoch: 25 February)

Date Brightness Start Highest point End Pass type
(mag) Time Alt. Az. Time Alt. Az. Time Alt. Az.
26 Feb 0.8 19:21:58 10° WSW 19:26:09 81° NNW 19:29:45 13° ENE visible
26 Feb 3.5 21:04:15 10° WNW 21:05:07 13° WNW 21:05:07 13° WNW visible
27 Feb 1.1 19:11:46 10° WSW 19:15:53 61° NNW 19:19:58 10° ENE visible
27 Feb 3.5 20:54:45 10° WNW 20:55:34 12° NW 20:55:34 12° NW visible
28 Feb 1.6 19:01:35 10° W 19:05:35 46° NNW 19:09:34 10° NE visible
